timestamp,wind_dir_avg,wind_spd_max_dir,wind_spd_avg,wind_spd_gust,battery_voltage,lat,long
2017-12-04 00:00:00+00:00,64.0,71.0,12.06,15.78,,47.59359,-54.27349
2017-12-04 00:10:00+00:00,64.0,74.0,11.31,14.98,,47.59359,-54.27349
2017-12-04 00:20:00+00:00,70.0,74.0,13.69,16.39,,47.59359,-54.27349
2017-12-04 00:30:00+00:00,61.0,73.0,10.45,14.84,,47.59359,-54.27349
2017-12-04 00:40:00+00:00,76.0,78.0,11.83,15.37,,47.59359,-54.27349
2017-12-04 00:50:00+00:00,74.0,74.0,13.47,16.75,,47.59359,-54.27349
2017-12-04 01:00:00+00:00,73.0,81.0,13.05,16.01,,47.59359,-54.27349
2017-12-04 01:10:00+00:00,67.0,70.0,10.95,15.18,,47.59359,-54.27349
2017-12-04 01:20:00+00:00,61.0,71.0,12.98,15.8,,47.59359,-54.27349
2017-12-04 01:30:00+00:00,63.0,76.0,10.22,14.63,,47.59359,-54.27349
2017-12-04 01:40:00+00:00,57.0,65.0,10.23,13.41,,47.59359,-54.27349
2017-12-04 01:50:00+00:00,66.0,71.0,10.99,14.55,,47.59359,-54.27349
2017-12-04 02:00:00+00:00,71.0,76.0,12.13,15.76,,47.59359,-54.27349
2017-12-04 02:10:00+00:00,69.0,77.0,10.21,15.51,,47.59359,-54.27349
2017-12-04 02:20:00+00:00,69.0,74.0,11.64,16.27,,47.59359,-54.27349
2017-12-04 02:30:00+00:00,67.0,71.0,12.15,15.88,,47.59359,-54.27349
2017-12-04 02:40:00+00:00,74.0,75.0,12.18,15.71,,47.59359,-54.27349
2017-12-04 02:50:00+00:00,74.0,71.0,14.27,16.05,,47.59359,-54.27349
2017-12-04 03:00:00+00:00,68.0,71.0,13.94,17.1,,47.59359,-54.27349
2017-12-04 03:10:00+00:00,59.0,69.0,12.07,15.93,,47.59359,-54.27349
2017-12-04 03:20:00+00:00,62.0,63.0,12.01,15.96,,47.59359,-54.27349
2017-12-04 03:30:00+00:00,55.0,57.0,10.73,14.87,,47.59359,-54.27349
2017-12-04 03:40:00+00:00,67.0,69.0,11.2,15.81,,47.59359,-54.27349
2017-12-04 03:50:00+00:00,54.0,58.0,13.07,15.91,,47.59359,-54.27349
2017-12-04 04:00:00+00:00,60.0,62.0,12.44,15.97,,47.59359,-54.27349
2017-12-04 04:10:00+00:00,56.0,54.0,9.19,10.96,,47.59359,-54.27349
2017-12-04 04:20:00+00:00,53.0,54.0,8.69,10.3,,47.59359,-54.27349
2017-12-04 04:30:00+00:00,31.0,36.0,8.79,9.86,,47.59359,-54.27349
2017-12-04 04:40:00+00:00,40.0,42.0,9.05,9.94,,47.59359,-54.27349
2017-12-04 04:50:00+00:00,47.0,54.0,10.21,11.99,,47.59359,-54.27349
2017-12-04 05:00:00+00:00,46.0,54.0,11.02,13.8,,47.59359,-54.27349
2017-12-04 05:10:00+00:00,44.0,53.0,12.07,14.34,,47.59359,-54.27349
2017-12-04 05:20:00+00:00,53.0,51.0,11.46,16.61,,47.59359,-54.27349
2017-12-04 05:30:00+00:00,39.0,40.0,12.07,13.76,,47.59359,-54.27349
2017-12-04 05:40:00+00:00,51.0,57.0,12.18,16.19,,47.59359,-54.27349
2017-12-04 05:50:00+00:00,48.0,51.0,11.9,13.91,,47.59359,-54.27349
2017-12-04 06:00:00+00:00,53.0,63.0,11.43,14.46,,47.59359,-54.27349
2017-12-04 06:10:00+00:00,53.0,46.0,10.49,12.96,,47.59359,-54.27349
2017-12-04 06:20:00+00:00,40.0,51.0,10.44,12.12,,47.59359,-54.27349
2017-12-04 06:30:00+00:00,64.0,70.0,13.41,16.66,,47.59359,-54.27349
2017-12-04 06:40:00+00:00,61.0,73.0,12.92,17.66,,47.59359,-54.27349
2017-12-04 06:50:00+00:00,56.0,60.0,13.47,15.44,,47.59359,-54.27349
2017-12-04 07:00:00+00:00,64.0,68.0,11.98,15.73,,47.59359,-54.27349
2017-12-04 07:10:00+00:00,57.0,63.0,12.83,15.78,,47.59359,-54.27349
2017-12-04 07:20:00+00:00,53.0,60.0,10.88,14.18,,47.59359,-54.27349
2017-12-04 07:30:00+00:00,53.0,53.0,11.56,13.94,,47.59359,-54.27349
2017-12-04 07:40:00+00:00,49.0,50.0,8.34,9.62,,47.59359,-54.27349
2017-12-04 07:50:00+00:00,45.0,53.0,9.83,12.36,,47.59359,-54.27349
2017-12-04 08:00:00+00:00,38.0,42.0,8.94,9.74,,47.59359,-54.27349
2017-12-04 08:10:00+00:00,40.0,40.0,10.45,12.53,,47.59359,-54.27349
2017-12-04 08:20:00+00:00,39.0,42.0,10.01,12.57,,47.59359,-54.27349
2017-12-04 08:30:00+00:00,43.0,55.0,11.77,13.69,,47.59359,-54.27349
2017-12-04 08:40:00+00:00,41.0,41.0,10.55,12.19,,47.59359,-54.27349
2017-12-04 08:50:00+00:00,44.0,54.0,11.13,16.41,,47.59359,-54.27349
2017-12-04 09:00:00+00:00,42.0,43.0,10.08,12.32,,47.59359,-54.27349
2017-12-04 09:10:00+00:00,38.0,43.0,8.95,9.96,,47.59359,-54.27349
2017-12-04 09:20:00+00:00,35.0,31.0,9.01,12.45,,47.59359,-54.27349
2017-12-04 09:30:00+00:00,34.0,30.0,9.84,11.42,,47.59359,-54.27349
2017-12-04 09:40:00+00:00,44.0,53.0,10.72,12.91,,47.59359,-54.27349
2017-12-04 09:50:00+00:00,55.0,58.0,12.38,14.48,,47.59359,-54.27349
2017-12-04 10:00:00+00:00,44.0,50.0,10.27,12.3,,47.59359,-54.27349
2017-12-04 10:10:00+00:00,54.0,54.0,11.95,14.49,,47.59359,-54.27349
2017-12-04 10:20:00+00:00,34.0,41.0,9.92,12.36,,47.59359,-54.27349
2017-12-04 10:30:00+00:00,37.0,38.0,10.35,12.58,,47.59359,-54.27349
2017-12-04 10:40:00+00:00,45.0,44.0,10.86,12.86,,47.59359,-54.27349
2017-12-04 10:50:00+00:00,39.0,42.0,11.13,13.87,,47.59359,-54.27349
2017-12-04 11:00:00+00:00,43.0,42.0,10.0,12.11,,47.59359,-54.27349
2017-12-04 11:10:00+00:00,45.0,51.0,10.6,12.49,,47.59359,-54.27349
2017-12-04 11:20:00+00:00,47.0,35.0,12.3,15.92,,47.59359,-54.27349
2017-12-04 11:30:00+00:00,52.0,51.0,13.0,14.68,,47.59359,-54.27349
2017-12-04 11:40:00+00:00,55.0,67.0,13.21,16.16,,47.59359,-54.27349
2017-12-04 11:50:00+00:00,49.0,57.0,10.5,15.88,,47.59359,-54.27349
2017-12-04 12:00:00+00:00,52.0,53.0,10.76,12.47,,47.59359,-54.27349
2017-12-04 12:10:00+00:00,55.0,61.0,13.31,16.71,,47.59359,-54.27349
2017-12-04 12:20:00+00:00,55.0,56.0,13.48,16.28,,47.59359,-54.27349
2017-12-04 12:30:00+00:00,53.0,53.0,12.21,15.12,,47.59359,-54.27349
2017-12-04 12:40:00+00:00,55.0,58.0,11.9,14.75,,47.59359,-54.27349
2017-12-04 12:50:00+00:00,55.0,54.0,11.63,14.83,,47.59359,-54.27349
2017-12-04 13:00:00+00:00,50.0,50.0,12.25,14.28,,47.59359,-54.27349
2017-12-04 13:10:00+00:00,58.0,58.0,10.68,12.26,,47.59359,-54.27349
2017-12-04 13:20:00+00:00,54.0,63.0,12.06,14.59,,47.59359,-54.27349
2017-12-04 13:30:00+00:00,53.0,54.0,12.14,14.5,,47.59359,-54.27349
2017-12-04 13:40:00+00:00,46.0,42.0,12.76,14.35,,47.59359,-54.27349
2017-12-04 13:50:00+00:00,53.0,55.0,11.59,13.51,,47.59359,-54.27349
2017-12-04 14:00:00+00:00,52.0,56.0,12.55,14.67,,47.59359,-54.27349
2017-12-04 14:10:00+00:00,49.0,52.0,10.88,12.87,,47.59359,-54.27349
2017-12-04 14:20:00+00:00,54.0,59.0,12.15,14.14,,47.59359,-54.27349
2017-12-04 14:30:00+00:00,56.0,57.0,11.93,16.25,,47.59359,-54.27349
2017-12-04 14:40:00+00:00,55.0,62.0,12.43,14.05,,47.59359,-54.27349
2017-12-04 14:50:00+00:00,57.0,58.0,12.27,14.32,,47.59359,-54.27349
2017-12-04 15:00:00+00:00,59.0,59.0,11.27,12.88,,47.59359,-54.27349
2017-12-04 15:10:00+00:00,57.0,54.0,11.47,13.22,,47.59359,-54.27349
2017-12-04 15:20:00+00:00,52.0,55.0,10.51,13.39,,47.59359,-54.27349
2017-12-04 15:30:00+00:00,48.0,51.0,11.44,13.96,,47.59359,-54.27349
2017-12-04 15:40:00+00:00,55.0,64.0,12.37,14.83,,47.59359,-54.27349
2017-12-04 15:50:00+00:00,58.0,52.0,10.78,11.97,,47.59359,-54.27349
2017-12-04 16:00:00+00:00,51.0,52.0,11.52,14.06,,47.59359,-54.27349
2017-12-04 16:10:00+00:00,52.0,54.0,12.39,15.04,,47.59359,-54.27349
2017-12-04 16:20:00+00:00,46.0,50.0,12.37,14.02,,47.59359,-54.27349
2017-12-04 16:30:00+00:00,50.0,54.0,11.89,13.83,,47.59359,-54.27349
2017-12-04 16:40:00+00:00,51.0,59.0,13.56,17.24,,47.59359,-54.27349
2017-12-04 16:50:00+00:00,52.0,54.0,13.36,15.33,,47.59359,-54.27349
2017-12-04 17:00:00+00:00,55.0,67.0,12.47,15.16,,47.59359,-54.27349
2017-12-04 17:10:00+00:00,56.0,58.0,14.27,17.21,,47.59359,-54.27349
2017-12-04 17:20:00+00:00,46.0,49.0,12.3,14.24,,47.59359,-54.27349
2017-12-04 17:30:00+00:00,53.0,54.0,15.58,17.73,,47.59359,-54.27349
2017-12-04 17:40:00+00:00,51.0,54.0,14.4,17.88,,47.59359,-54.27349
2017-12-04 17:50:00+00:00,43.0,51.0,11.89,14.09,,47.59359,-54.27349
2017-12-04 18:00:00+00:00,54.0,58.0,15.44,18.1,,47.59359,-54.27349
2017-12-04 18:10:00+00:00,43.0,57.0,13.31,17.26,,47.59359,-54.27349
2017-12-04 18:20:00+00:00,46.0,55.0,12.88,16.45,,47.59359,-54.27349
2017-12-04 18:30:00+00:00,37.0,35.0,11.36,12.84,,47.59359,-54.27349
2017-12-04 18:40:00+00:00,37.0,38.0,10.85,12.6,,47.59359,-54.27349
2017-12-04 18:50:00+00:00,34.0,33.0,10.19,12.42,,47.59359,-54.27349
2017-12-04 19:00:00+00:00,45.0,49.0,10.93,12.04,,47.59359,-54.27349
2017-12-04 19:10:00+00:00,37.0,42.0,11.64,13.87,,47.59359,-54.27349
2017-12-04 19:20:00+00:00,33.0,24.0,9.75,10.88,,47.59359,-54.27349
2017-12-04 19:30:00+00:00,32.0,34.0,10.51,12.25,,47.59359,-54.27349
2017-12-04 19:40:00+00:00,40.0,44.0,10.27,11.77,,47.59359,-54.27349
2017-12-04 19:50:00+00:00,35.0,33.0,9.82,10.98,,47.59359,-54.27349
2017-12-04 20:00:00+00:00,34.0,34.0,10.15,11.6,,47.59359,-54.27349
2017-12-04 20:10:00+00:00,37.0,42.0,11.01,12.85,,47.59359,-54.27349
2017-12-04 20:20:00+00:00,31.0,29.0,10.07,11.89,,47.59359,-54.27349
2017-12-04 20:30:00+00:00,35.0,40.0,11.29,13.52,,47.59359,-54.27349
2017-12-04 20:40:00+00:00,33.0,34.0,10.54,12.31,,47.59359,-54.27349
2017-12-04 20:50:00+00:00,33.0,31.0,9.87,11.56,,47.59359,-54.27349
2017-12-04 21:00:00+00:00,34.0,34.0,10.57,11.88,,47.59359,-54.27349
2017-12-04 21:10:00+00:00,31.0,33.0,10.72,12.78,,47.59359,-54.27349
2017-12-04 21:20:00+00:00,28.0,26.0,10.53,12.09,,47.59359,-54.27349
2017-12-04 21:30:00+00:00,38.0,46.0,10.86,12.61,,47.59359,-54.27349
2017-12-04 21:40:00+00:00,36.0,44.0,11.44,13.38,,47.59359,-54.27349
2017-12-04 21:50:00+00:00,35.0,39.0,10.04,11.6,,47.59359,-54.27349
2017-12-04 22:00:00+00:00,32.0,32.0,10.77,11.97,,47.59359,-54.27349
2017-12-04 22:10:00+00:00,38.0,41.0,10.66,13.62,,47.59359,-54.27349
2017-12-04 22:20:00+00:00,33.0,27.0,10.13,13.42,,47.59359,-54.27349
2017-12-04 22:30:00+00:00,35.0,37.0,11.19,13.03,,47.59359,-54.27349
2017-12-04 22:40:00+00:00,35.0,46.0,13.28,15.12,,47.59359,-54.27349
2017-12-04 22:50:00+00:00,32.0,31.0,12.64,15.19,,47.59359,-54.27349
2017-12-04 23:00:00+00:00,35.0,39.0,11.89,13.84,,47.59359,-54.27349
2017-12-04 23:10:00+00:00,34.0,36.0,11.95,13.84,,47.59359,-54.27349
2017-12-04 23:20:00+00:00,32.0,51.0,12.41,15.29,,47.59359,-54.27349
2017-12-04 23:30:00+00:00,38.0,39.0,11.59,13.31,,47.59359,-54.27349
2017-12-04 23:40:00+00:00,39.0,39.0,11.3,13.41,,47.59359,-54.27349
2017-12-04 23:50:00+00:00,38.0,42.0,12.21,14.5,,47.59359,-54.27349
